{"data":{"norad_id":68922,"epoch":"2026-05-24T10:58:05.132640Z","epoch_age_seconds":112028,"freshness":"FRESH","line1":"1 68922U 26098D   26144.45700385  .00013742  00000+0  47169-3 0  9997","line2":"2 68922  51.8718 182.6928 0021401  61.1560 299.1568 15.30221122  3699","mean_motion":15.30221122,"eccentricity":0.0021401,"inclination_deg":51.8718,"raan_deg":182.6928,"arg_perigee_deg":61.156,"mean_anomaly_deg":299.1568,"bstar":0.00047169,"rev_number":369,"period_min":94.10404674835,"perigee_km":460.48527986329,"apogee_km":489.81872745676,"semimajor_km":6853.28900366,"source":"CELESTRAK","updated_at":"2026-05-25T13:38:08.792840Z"}}